Meteo pe oră la Bolshoe Berdyaevo

Astăzi, 19 Mai, Miercuri

Timp Temperatura Precipitaţii Vânt Presiune Umiditate
00:00 +15°C° 0 mm 4 m/s 730 mmHg 91%
01:00 +14°C° 0 mm 4 m/s 730 mmHg 93%
02:00 +13°C° 0 mm 3 m/s 730 mmHg 95%
03:00 +13°C° 0.1 mm 3 m/s 730 mmHg 94%
04:00 +13°C° 0.1 mm 3 m/s 730 mmHg 94%
05:00 +13°C° 0.1 mm 3 m/s 730 mmHg 94%
06:00 +14°C° 0 mm 4 m/s 730 mmHg 91%
07:00 +15°C° 0 mm 4 m/s 731 mmHg 87%
08:00 +16°C° 0 mm 5 m/s 731 mmHg 84%
09:00 +17°C° 0.3 mm 5 m/s 731 mmHg 78%
10:00 +19°C° 0.3 mm 5 m/s 731 mmHg 72%
11:00 +20°C° 0.3 mm 5 m/s 732 mmHg 66%
12:00 +20°C° 0.2 mm 5 m/s 732 mmHg 66%
13:00 +20°C° 0.2 mm 5 m/s 732 mmHg 66%
14:00 +20°C° 0.2 mm 4 m/s 732 mmHg 66%
15:00 +20°C° 0.2 mm 4 m/s 732 mmHg 68%
16:00 +19°C° 0.2 mm 3 m/s 732 mmHg 70%
17:00 +19°C° 0.2 mm 3 m/s 732 mmHg 72%
18:00 +18°C° 0.1 mm 2 m/s 732 mmHg 77%
19:00 +17°C° 0.1 mm 2 m/s 732 mmHg 83%
20:00 +15°C° 0.1 mm 2 m/s 732 mmHg 88%
21:00 +15°C° 0.1 mm 1 m/s 732 mmHg 89%
22:00 +15°C° 0.1 mm 1 m/s 732 mmHg 91%
23:00 +14°C° 0.1 mm 1 m/s 732 mmHg 92%

Mâine, 20 Mai, Joi

Timp Temperatura Precipitaţii Vânt Presiune Umiditate
00:00 +14°C° 0.4 mm 1 m/s 732 mmHg 94%
01:00 +14°C° 0.4 mm 1 m/s 731 mmHg 95%
02:00 +14°C° 0.4 mm 1 m/s 731 mmHg 96%
03:00 +14°C° 0.3 mm 2 m/s 731 mmHg 97%
04:00 +14°C° 0.3 mm 2 m/s 730 mmHg 97%
05:00 +13°C° 0.3 mm 3 m/s 730 mmHg 97%
06:00 +13°C° 0.8 mm 3 m/s 730 mmHg 95%
07:00 +14°C° 0.8 mm 3 m/s 729 mmHg 93%
08:00 +14°C° 0.8 mm 3 m/s 729 mmHg 91%
09:00 +14°C° 0.5 mm 3 m/s 729 mmHg 90%
10:00 +13°C° 0.5 mm 3 m/s 729 mmHg 89%
11:00 +13°C° 0.5 mm 3 m/s 729 mmHg 88%
12:00 +13°C° 0.5 mm 3 m/s 729 mmHg 90%
13:00 +12°C° 0.5 mm 3 m/s 729 mmHg 93%
14:00 +12°C° 0.5 mm 2 m/s 730 mmHg 95%
15:00 +11°C° 0.3 mm 3 m/s 730 mmHg 95%
16:00 +10°C° 0.3 mm 4 m/s 730 mmHg 96%
17:00 +9°C° 0.3 mm 5 m/s 731 mmHg 96%
18:00 +9°C° 0.1 mm 5 m/s 731 mmHg 95%
19:00 +8°C° 0.1 mm 5 m/s 732 mmHg 94%
20:00 +8°C° 0.1 mm 5 m/s 733 mmHg 94%
21:00 +8°C° 0 mm 5 m/s 734 mmHg 94%
22:00 +8°C° 0 mm 5 m/s 734 mmHg 94%
23:00 +7°C° 0 mm 4 m/s 735 mmHg 94%

Poimâine, 21 Mai, Vineri

Timp Temperatura Precipitaţii Vânt Presiune Umiditate
00:00 +7°C° 0 mm 4 m/s 735 mmHg 94%
01:00 +7°C° 0 mm 4 m/s 736 mmHg 94%
02:00 +7°C° 0 mm 4 m/s 736 mmHg 94%
03:00 +8°C° 0 mm 3 m/s 737 mmHg 94%
04:00 +7°C° 0 mm 3 m/s 737 mmHg 95%
05:00 +7°C° 0 mm 2 m/s 738 mmHg 95%
06:00 +9°C° 0 mm 2 m/s 738 mmHg 88%
07:00 +11°C° 0 mm 3 m/s 739 mmHg 80%
08:00 +13°C° 0 mm 3 m/s 739 mmHg 73%
09:00 +14°C° 0 mm 3 m/s 739 mmHg 65%
10:00 +16°C° 0 mm 3 m/s 739 mmHg 56%
11:00 +17°C° 0 mm 3 m/s 739 mmHg 48%
12:00 +18°C° 0 mm 3 m/s 739 mmHg 47%
13:00 +18°C° 0 mm 3 m/s 740 mmHg 45%
14:00 +19°C° 0 mm 3 m/s 740 mmHg 44%
15:00 +18°C° 0 mm 3 m/s 740 mmHg 47%
16:00 +18°C° 0 mm 3 m/s 740 mmHg 51%
17:00 +17°C° 0 mm 3 m/s 740 mmHg 54%
18:00 +14°C° 0 mm 3 m/s 740 mmHg 62%
19:00 +13°C° 0 mm 2 m/s 741 mmHg 69%
20:00 +10°C° 0 mm 2 m/s 741 mmHg 77%
21:00 +9°C° 0 mm 2 m/s 741 mmHg 78%
22:00 +9°C° 0 mm 1 m/s 741 mmHg 79%
23:00 +9°C° 0 mm 1 m/s 741 mmHg 81%

22 Mai, Sâmbătă

Timp Temperatura Precipitaţii Vânt Presiune Umiditate
00:00 +8°C° 0 mm 1 m/s 741 mmHg 82%
01:00 +8°C° 0 mm 1 m/s 741 mmHg 83%
02:00 +7°C° 0 mm 1 m/s 741 mmHg 83%
03:00 +8°C° 0 mm 1 m/s 742 mmHg 82%
04:00 +8°C° 0 mm 1 m/s 742 mmHg 81%
05:00 +9°C° 0 mm 1 m/s 742 mmHg 80%
06:00 +11°C° 0 mm 1 m/s 742 mmHg 72%
07:00 +13°C° 0 mm 1 m/s 742 mmHg 63%
08:00 +15°C° 0 mm 1 m/s 742 mmHg 55%
09:00 +16°C° 0 mm 1 m/s 742 mmHg 51%
10:00 +17°C° 0 mm 2 m/s 742 mmHg 48%
11:00 +18°C° 0 mm 2 m/s 742 mmHg 44%
12:00 +19°C° 0 mm 2 m/s 741 mmHg 44%
13:00 +20°C° 0 mm 2 m/s 741 mmHg 43%
14:00 +20°C° 0 mm 2 m/s 741 mmHg 43%
15:00 +20°C° 0 mm 2 m/s 741 mmHg 48%
16:00 +20°C° 0 mm 2 m/s 741 mmHg 53%
17:00 +19°C° 0 mm 2 m/s 740 mmHg 58%
18:00 +17°C° 0 mm 2 m/s 740 mmHg 66%
19:00 +15°C° 0 mm 2 m/s 740 mmHg 74%
20:00 +14°C° 0 mm 2 m/s 740 mmHg 82%
21:00 +13°C° 0 mm 2 m/s 740 mmHg 86%
22:00 +12°C° 0 mm 2 m/s 740 mmHg 89%
23:00 +10°C° 0 mm 2 m/s 740 mmHg 92%

23 Mai, Duminică

Timp Temperatura Precipitaţii Vânt Presiune Umiditate
00:00 +10°C° 0 mm 2 m/s 740 mmHg 94%
01:00 +9°C° 0 mm 2 m/s 739 mmHg 95%
02:00 +9°C° 0 mm 2 m/s 739 mmHg 97%
03:00 +9°C° 0 mm 2 m/s 739 mmHg 96%
04:00 +10°C° 0 mm 2 m/s 738 mmHg 95%
05:00 +10°C° 0 mm 3 m/s 738 mmHg 95%
06:00 +11°C° 0 mm 3 m/s 737 mmHg 90%
07:00 +13°C° 0 mm 3 m/s 737 mmHg 86%
08:00 +14°C° 0 mm 3 m/s 736 mmHg 82%
09:00 +14°C° 0.1 mm 3 m/s 736 mmHg 84%
10:00 +14°C° 0.1 mm 3 m/s 736 mmHg 85%
11:00 +16°C° 0.1 mm 3 m/s 735 mmHg 86%
12:00 +17°C° 0 mm 3 m/s 735 mmHg 81%
13:00 +18°C° 0 mm 4 m/s 735 mmHg 77%
14:00 +19°C° 0 mm 4 m/s 734 mmHg 72%
15:00 +18°C° 0.2 mm 4 m/s 734 mmHg 74%
16:00 +18°C° 0.2 mm 4 m/s 734 mmHg 77%
17:00 +17°C° 0.2 mm 5 m/s 734 mmHg 79%
18:00 +17°C° 0.3 mm 4 m/s 734 mmHg 83%
19:00 +14°C° 0.3 mm 4 m/s 734 mmHg 88%
20:00 +13°C° 0.3 mm 4 m/s 735 mmHg 92%
21:00 +12°C° 0 mm 3 m/s 735 mmHg 93%
22:00 +12°C° 0 mm 3 m/s 735 mmHg 95%
23:00 +11°C° 0 mm 3 m/s 735 mmHg 96%

24 Mai, Luni

Timp Temperatura Precipitaţii Vânt Presiune Umiditate
00:00 +12°C° 0 mm 2 m/s 736 mmHg 96%
01:00 +10°C° 0 mm 2 m/s 736 mmHg 96%
02:00 +11°C° 0 mm 1 m/s 736 mmHg 97%
03:00 +11°C° 0 mm 1 m/s 736 mmHg 96%
04:00 +11°C° 0 mm 1 m/s 737 mmHg 96%
05:00 +11°C° 0 mm 1 m/s 737 mmHg 95%
06:00 +12°C° 0 mm 2 m/s 737 mmHg 88%
07:00 +13°C° 0 mm 2 m/s 737 mmHg 82%
08:00 +14°C° 0 mm 2 m/s 737 mmHg 75%
09:00 +14°C° 0 mm 2 m/s 738 mmHg 69%
10:00 +14°C° 0 mm 3 m/s 738 mmHg 64%
11:00 +16°C° 0 mm 3 m/s 739 mmHg 58%
12:00 +17°C° 0 mm 3 m/s 738 mmHg 52%
13:00 +18°C° 0 mm 3 m/s 738 mmHg 47%
14:00 +18°C° 0 mm 3 m/s 738 mmHg 41%
15:00 +18°C° 0.1 mm 3 m/s 738 mmHg 48%
16:00 +17°C° 0.1 mm 3 m/s 738 mmHg 55%
17:00 +15°C° 0.1 mm 4 m/s 738 mmHg 62%
18:00 +13°C° 0.3 mm 3 m/s 739 mmHg 72%
19:00 +12°C° 0.3 mm 2 m/s 739 mmHg 83%
20:00 +9°C° 0.3 mm 2 m/s 740 mmHg 94%
21:00 +9°C° 0.1 mm 2 m/s 740 mmHg 94%
22:00 +8°C° 0.1 mm 2 m/s 740 mmHg 95%
23:00 +8°C° 0.1 mm 2 m/s 740 mmHg 96%
Arată mai mult

Formular de consimțământ

Meteoprog și furnizorii noștri de servicii pot stoca și accesa date personale, precum cookies, identificatori de dispozitiv sau alte tehnologii similare pe dispozitivul dumneavoastră și procesa astfel de date pentru a personaliza conținutul și reclamele, dar și pentru a oferi caracteristici de social media și pentru a analiza traficul.

  • Stocarea și/sau accesarea informațiilor pe dispozitivul dumneavoastră

    Cookies, identificatori de dispozitiv sau alte informații pot fi stocate sau accesate pe dispozitiv în scopurile indicate mai sus.

  • Reclame și conținut personalizat, evaluarea reclamelor și a conținutului, informații despre audiențe și dezvoltarea produselor

    Reclamele și conținutul pot fi personalizate pe baza unui profil. Pot fi adăugate date suplimentare pentru a personaliza mai bine reclamele și conținutul. Performanța reclamelor și conținutului poate fi măsurată. Pot fi obținute informații despre utilizatorii care au văzut reclamele și conținutul. Aceste date pot fi utilizate pentru a dezvolta sau îmbunătăți experiența utilizatorilor, sistemele și software-ul.

Dând clic pe ‘Sunt de acord’, permiteți utilizarea cookie-urilor menționate, a identificatorilor de dispozitiv, balizelor web sau altor tehnologii similare. Setările pot fi modificate din browser-ul dispozitivului dumneavoastră.

În anumite scopuri, interesele legitime pot prima asupra consimțământului. Puteți citi mai multe informații în acest sens în Politica privind Confidențialitatea Datelor și Cookie.